Location: Unspecified
(34.4950°S, 58.5160°W)
Time: 00:12:38
(UTC+00:00)

DELTA 2 R/B (1) - Pass Details

Date: 15 December 2025
Orbit: 787 x 799 km, 39.6° (Epoch: 15 January)

Event Time Altitude Azimuth Distance (km) Brightness Sun altitude
Rises 23:36:32 0° 285° (WNW) 3,288 7.4 -6.7°
Reaches altitude 10° 23:39:02 10° 283° (WNW) 2,360 6.7 -7.1°
Maximum altitude 23:44:36 73° 198° (SSW) 833 3.9 -8.0°
Drops below altitude 10° 23:50:10 10° 113° (ESE) 2,363 5.7 -9.0°
Sets 23:52:40 0° 110° (ESE) 3,293 6.5 -9.4°
